Terminal Aerodrome Forecast
Issued by NWS Billings, MT

Home | Current Version | Previous Version | Graphics & Text | Print | Product List | Glossary On
Versions: 1 2 3 4 5 6 7 8 9 10 11 12 13 14 15 16 17
000
FTUS45 KBYZ 140306 AAA
TAFMLS
TAF AMD
KMLS 140306Z 1403/1424 02015KT P6SM VCSH SCT090 BKN120
     FM141000 35012KT P6SM VCSH FEW010 BKN027
     FM141700 32011KT P6SM SCT025 BKN060=

USA.gov is the U.S. government's official web portal to all federal, state and local government web resources and services.